Temperature
21 20 20 20 24 26 25 25 25 25 25 24 24 24 24 23 23 22 18 18 18 19 18 19 19 19 19 19 19 19 19 19 19 19 19 19 19 19 19 19 19 19 19 19 19 19 19 19 19
20 20 20 22 26 26 25 25 25 24 24 24 24 24 24 22 20 19 18 18 18 18 18 18 19 19 19 19 19 19 19 19 19 19 19 19 19 19 19 19 19 19 19 19 19 19 19 18 18
21 20 22 26 26 26 25 24 25 24 23 24 23 23 22 20 19 19 18 18 18 18 18 18 19 19 19 19 19 19 19 19 19 19 19 19 19 19 19 19 19 19 19 19 18 18 18 18 18
20 21 24 26 25 25 24 24 24 24 23 23 23 22 20 18 18 18 18 18 18 18 18 18 18 18 18 18 18 18 18 18 19 18 18 18 19 19 19 19 19 18 18 18 18 18 18 18 18
21 24 26 26 25 24 24 23 24 25 24 23 23 22 19 17 17 18 18 18 18 18 18 18 18 18 18 18 18 18 18 18 18 18 18 18 18 18 18 18 18 18 18 18 18 18 18 18 18
23 26 26 25 25 24 24 23 23 24 23 22 22 22 18 17 17 18 18 18 18 18 18 18 18 18 18 18 18 18 18 18 18 18 18 18 18 18 18 18 18 18 18 18 18 18 18 18 18
25 26 26 26 25 24 24 22 23 23 22 21 21 21 19 18 17 17 17 18 18 18 17 17 17 17 18 18 18 18 18 18 18 18 18 18 18 18 18 18 18 18 18 18 18 18 18 18 18
24 27 26 26 25 24 23 22 21 22 21 20 20 21 19 17 17 17 17 17 17 17 17 17 17 17 17 17 17 17 17 18 18 18 18 18 18 18 18 18 18 18 18 18 18 18 18 18 18
23 27 26 26 25 24 23 22 21 20 20 19 19 18 17 17 17 17 17 17 17 17 17 17 17 17 17 17 17 17 17 17 18 18 18 18 18 17 17 17 18 18 18 18 18 18 18 18 18
25 26 26 24 25 24 22 22 22 21 21 20 19 17 17 17 17 17 17 17 17 17 16 16 16 16 17 17 17 17 17 17 17 17 17 17 17 17 17 17 18 18 18 18 18 18 18 18 17
26 26 24 23 23 23 22 21 21 22 22 20 19 18 17 17 17 17 17 16 16 16 16 16 16 16 16 16 16 16 16 17 17 17 17 17 17 17 17 17 18 18 18 18 18 18 17 17 17
25 23 23 23 21 22 22 21 21 21 20 19 18 18 18 18 17 17 16 16 16 15 15 15 15 15 15 15 15 15 16 16 16 16 16 17 17 17 17 17 17 17 18 17 17 17 17 17 18
25 23 22 21 21 21 21 21 21 19 18 18 17 17 17 17 17 16 16 16 16 15 15 15 14 14 14 15 15 15 15 15 16 16 16 16 16 17 17 17 17 17 17 17 17 17 18 18 18
24 22 22 21 21 21 21 21 21 19 18 18 18 18 18 17 17 17 16 16 16 15 15 14 14 14 14 14 14 14 14 15 15 15 15 16 16 16 16 17 17 17 17 17 17 17 17 17 17
23 23 23 22 22 21 22 22 22 19 18 18 18 18 17 17 16 16 16 15 15 15 14 14 14 13 13 14 14 14 14 14 14 14 15 15 15 16 16 16 16 17 17 17 17 17 17 17 17
24 25 24 23 22 21 22 23 22 19 19 19 19 18 17 17 17 16 15 15 15 14 14 13 13 13 13 13 13 13 13 14 14 14 14 14 15 15 15 16 16 16 16 17 17 17 17 17 17
25 25 25 24 23 23 22 23 21 19 19 19 19 18 18 17 17 16 15 15 14 14 13 13 13 13 13 13 13 13 13 13 13 13 14 14 14 14 15 15 15 16 16 16 16 17 17 17 17
26 26 26 25 23 23 23 23 22 19 19 20 19 19 18 18 17 16 15 14 14 13 13 13 13 13 13 13 13 13 13 13 13 13 13 13 14 14 14 15 15 15 16 16 16 16 16 17 17
26 26 26 24 23 22 23 23 22 20 19 19 19 19 19 18 17 16 15 14 14 13 13 13 13 13 12 12 13 13 13 13 13 13 13 13 13 13 14 14 14 15 15 16 16 16 16 16 16
26 26 25 23 22 22 23 23 23 21 20 19 19 19 19 18 17 16 15 14 14 13 13 13 13 12 12 12 12 12 12 12 12 12 12 13 13 13 13 14 14 14 15 15 15 15 15 16 16
25 25 25 24 22 22 22 23 23 21 20 19 18 18 18 17 17 16 15 14 14 13 13 13 12 12 12 12 12 12 12 12 12 12 12 12 13 13 13 13 14 14 14 14 15 15 15 15 16
25 24 23 23 23 24 22 23 24 22 21 20 19 18 18 17 16 15 15 14 14 13 13 13 12 12 12 12 12 12 12 12 12 12 12 12 12 13 13 13 14 14 14 14 14 14 15 15 15
24 23 23 23 23 23 23 23 24 22 22 21 20 19 18 17 16 15 15 14 13 13 12 12 12 12 12 12 12 12 12 12 12 12 12 12 12 12 13 13 13 13 14 14 14 14 14 15 15
23 23 23 23 23 23 23 23 23 23 22 21 20 19 17 17 16 15 14 14 13 13 12 12 12 12 12 12 12 12 12 11 12 12 12 12 12 12 12 13 13 13 13 14 14 14 14 14 14
24 24 24 24 23 23 22 22 23 23 21 21 20 19 18 17 16 15 15 14 13 13 12 12 12 12 12 12 12 12 11 11 12 11 12 12 12 12 12 12 13 13 13 13 14 14 14 14 14
24 24 24 23 23 24 22 22 24 21 20 19 18 18 17 17 16 15 14 14 13 13 12 12 12 12 12 12 12 11 11 11 11 11 11 12 12 12 12 12 12 13 13 13 13 13 14 14 14
23 24 23 23 23 23 24 23 23 21 20 19 19 18 17 17 16 15 14 14 13 13 12 12 12 12 11 11 11 11 11 11 11 11 12 12 12 12 12 12 12 12 12 13 13 13 13 13 14
23 23 23 23 22 23 23 23 23 23 22 21 20 19 18 17 16 15 14 14 13 13 12 12 12 11 11 11 11 11 11 11 11 11 11 11 12 12 12 12 12 12 12 12 13 13 13 13 13
22 22 22 22 22 22 23 23 23 22 22 21 20 19 18 17 16 15 15 14 13 13 13 12 12 12 11 11 11 11 11 11 11 11 11 11 11 12 12 12 12 12 12 12 12 13 13 13 13
23 23 23 23 22 21 22 23 22 22 21 20 20 19 18 17 16 15 15 14 14 13 13 13 12 12 11 11 11 11 11 11 11 11 11 11 11 11 11 11 12 12 12 12 12 12 12 13 13
Wind_Speed
9 8 4 3 3 2 7 5 5 5 4 6 6 4 5 7 5 4 4 4 2 4 6 8 6 6 7 7 6 6 6 6 6 6 6 5 5 5 4 4 3 3 3 2 1 1 0 0 1
9 6 4 3 1 5 6 5 7 8 5 3 4 5 6 8 7 5 4 4 2 4 4 4 5 5 5 6 6 6 7 7 7 6 6 6 6 5 5 5 4 4 4 3 2 2 1 1 1
7 4 3 1 2 5 4 5 6 6 6 4 4 5 5 6 6 5 6 3 2 3 2 3 1 2 3 4 6 6 7 7 7 7 7 7 6 6 6 6 5 5 5 4 4 3 2 2 1
4 3 2 1 6 5 4 4 4 2 5 6 4 6 6 7 6 6 5 4 4 4 3 4 3 2 2 3 5 6 7 7 8 8 8 8 8 8 8 7 7 6 6 5 5 4 4 3 2
3 3 2 3 5 5 5 5 5 4 4 6 5 7 6 7 8 8 7 6 5 5 5 5 7 6 5 4 4 5 7 8 8 9 9 9 9 9 9 9 8 8 7 7 6 5 5 4 3
3 3 1 3 4 5 4 4 4 6 6 5 5 5 5 6 8 8 8 8 7 7 7 7 7 8 8 7 6 6 6 7 8 9 10 10 10 11 10 10 10 9 9 8 7 6 6 5 4
3 1 0 2 4 4 3 3 5 5 6 6 4 4 5 8 8 7 8 8 8 8 8 8 8 8 8 8 8 8 8 8 8 9 10 11 11 12 12 11 11 10 10 9 8 7 7 6 5
2 1 2 2 3 3 4 4 4 5 5 5 4 4 4 6 5 6 7 8 8 8 8 8 8 9 9 8 7 9 9 9 9 9 10 10 12 13 13 13 13 12 11 11 10 9 8 7 6
2 3 1 1 1 4 5 4 4 4 7 7 7 7 6 4 4 5 6 7 7 8 7 7 7 8 8 7 7 7 7 7 8 8 9 10 11 12 12 14 11 12 12 12 11 10 9 9 9
2 1 2 2 2 5 6 4 5 5 7 7 8 7 6 5 5 7 8 8 9 9 8 7 7 7 7 6 6 6 6 6 7 8 8 9 9 10 12 9 11 13 13 13 12 11 11 12 10
0 2 4 4 4 6 6 5 3 4 4 4 6 6 5 5 6 7 8 8 9 9 9 9 8 8 8 6 6 5 5 6 6 7 8 8 9 9 10 8 9 11 12 12 11 12 11 10 8
3 4 4 6 5 5 6 6 5 2 5 5 6 5 4 5 6 7 8 8 8 9 10 9 10 9 9 8 7 6 6 6 6 7 8 7 6 7 7 6 8 8 8 8 9 8 9 9 9
4 5 5 6 6 5 6 5 5 6 6 6 6 5 4 4 5 6 7 8 9 9 10 11 11 10 10 8 7 7 7 7 8 8 8 8 6 7 7 6 6 8 8 8 7 8 8 8 9
5 8 7 6 6 5 6 5 5 6 7 6 5 4 3 3 4 6 7 9 10 10 11 11 11 10 10 9 8 8 8 8 9 8 9 10 8 7 6 6 6 7 8 8 7 8 7 7 7
8 7 6 5 4 4 5 5 4 7 7 6 4 3 2 2 3 5 7 9 10 11 11 11 11 11 11 10 10 9 9 9 8 8 10 10 9 9 8 7 7 7 8 8 7 8 7 7 8
5 5 4 6 5 5 6 5 6 7 8 6 4 2 1 1 3 5 7 9 10 11 11 11 10 11 11 10 10 8 9 9 8 8 9 9 10 10 8 7 8 7 7 6 6 7 6 7 7
6 6 5 5 7 5 7 5 5 7 8 6 5 4 2 2 3 5 7 9 10 10 11 11 11 11 11 11 9 9 8 8 8 8 7 8 9 9 9 7 7 7 6 7 7 7 7 7 6
5 6 5 3 5 7 8 7 4 7 8 7 6 5 3 4 4 5 7 8 9 10 10 10 10 11 11 9 8 8 8 7 7 7 7 8 9 9 9 7 8 7 6 6 7 7 7 6 6
4 5 5 1 1 6 9 9 7 7 9 8 7 6 5 4 4 5 7 8 9 10 10 10 11 11 10 8 8 8 8 8 7 6 8 8 8 8 8 7 7 7 7 7 8 7 7 6 6
4 5 4 1 1 4 7 9 7 8 9 8 8 7 5 5 5 5 7 8 9 10 10 11 11 11 10 9 8 7 8 7 7 6 7 8 8 7 7 7 6 7 7 8 8 8 6 6 6
3 4 4 2 2 4 6 7 6 6 8 8 8 7 6 5 6 7 8 9 9 10 10 9 11 11 10 10 8 8 7 7 6 7 6 7 7 7 7 7 7 6 7 7 8 9 9 7 7
2 1 2 3 5 3 3 6 1 3 6 8 8 7 5 4 4 6 7 8 9 9 9 10 10 10 10 10 9 10 8 8 9 8 7 8 7 6 6 6 7 7 6 7 7 8 8 8 7
2 2 1 4 6 6 4 6 1 2 3 3 5 6 4 3 4 5 7 7 8 8 8 9 10 10 10 10 9 9 8 8 7 8 8 8 6 6 5 5 5 6 6 7 7 7 8 8 8
5 4 3 4 5 4 1 4 3 0 2 1 1 3 4 3 3 5 5 6 7 7 8 8 9 9 10 9 9 9 10 10 9 9 8 7 6 5 5 5 5 6 6 6 7 7 8 8 8
4 5 4 4 3 1 1 4 4 3 2 3 2 2 2 3 4 5 6 6 7 8 8 8 9 9 9 10 10 9 10 10 9 9 8 8 6 5 6 5 5 5 5 6 6 7 8 8 9
2 4 4 4 3 2 3 4 2 1 2 3 4 3 3 3 3 4 5 6 6 7 7 8 8 9 9 9 10 9 9 8 7 8 8 7 6 6 6 6 5 5 5 5 5 6 7 7 8
2 1 3 4 3 4 2 2 2 2 4 5 5 5 5 4 3 4 4 5 6 7 7 7 8 8 8 9 9 9 10 9 9 9 8 7 7 7 7 6 5 5 5 5 5 5 6 6 7
2 2 3 3 3 3 2 3 1 1 2 3 5 6 5 4 4 3 4 5 5 5 6 6 7 7 7 8 8 8 9 9 9 8 9 9 9 8 7 7 6 5 4 4 4 5 5 6 6
4 3 2 2 3 4 3 1 1 2 3 4 4 4 5 5 4 4 4 4 5 5 5 5 6 6 7 7 8 8 9 9 9 8 9 9 8 8 7 7 6 5 4 3 3 4 5 5 6
3 3 4 4 2 3 4 2 3 3 5 6 6 4 4 5 4 4 4 4 4 5 5 5 6 6 6 7 7 8 8 8 9 9 10 9 9 8 7 6 6 5 5 4 3 3 3 4 5
Wind_Direction
173 169 179 215 227 107 72 54 44 57 56 54 50 54 61 46 22 46 46 55 70 148 156 164 181 189 193 191 194 201 202 199 196 196 196 194 193 195 200 206 213 221 227 231 235 240 195 44 35
165 167 206 238 218 99 77 57 58 52 49 50 59 58 66 61 42 51 46 28 75 135 155 160 155 196 206 207 209 214 215 213 209 209 208 206 208 212 216 221 225 230 234 237 240 247 254 272 4
166 206 247 241 68 68 80 60 53 63 46 40 70 55 51 41 20 23 20 32 99 105 112 98 106 225 237 236 232 232 232 231 227 225 221 219 220 224 227 229 230 235 238 241 245 251 261 263 293
187 219 229 123 93 69 54 35 14 53 67 43 80 82 75 38 8 19 34 49 78 74 58 62 35 358 311 278 262 253 250 246 241 237 233 229 229 232 231 230 234 238 240 241 241 245 254 259 266
226 244 192 117 101 94 68 35 32 46 66 49 69 92 76 34 34 38 44 49 55 50 38 37 35 11 353 327 301 282 273 263 255 250 246 242 241 239 236 235 237 238 241 240 239 244 248 250 253
234 245 202 125 118 112 89 50 51 59 74 63 65 92 76 41 37 37 41 46 44 37 26 23 30 13 1 346 327 306 292 284 270 263 256 252 250 248 243 240 241 240 242 242 241 244 249 247 248
271 260 96 127 136 128 98 66 47 58 69 48 23 91 97 46 40 44 48 48 42 36 28 20 11 7 5 355 345 329 311 298 289 279 268 257 252 252 250 246 245 244 243 243 241 239 243 245 248
282 233 150 160 158 122 113 102 67 41 69 49 27 71 74 45 47 59 58 52 45 37 27 19 13 5 353 344 350 337 326 316 302 286 277 268 257 251 248 246 238 241 244 242 239 237 236 237 241
254 246 212 151 152 121 137 129 95 81 90 78 67 69 77 71 59 56 50 45 37 29 20 12 7 4 352 339 343 322 315 320 311 292 280 271 258 253 245 243 239 239 244 244 239 235 234 234 225
248 276 71 72 82 128 138 129 128 129 106 98 94 91 92 80 58 45 35 27 22 16 9 3 352 349 343 337 331 314 307 299 291 288 281 274 265 258 255 248 238 242 244 244 238 234 232 234 226
38 69 106 108 109 131 139 132 139 153 107 101 114 110 94 75 56 42 32 22 14 7 3 357 346 340 336 326 317 308 302 294 277 271 272 270 267 260 252 250 239 238 238 240 225 222 228 228 231
112 85 104 123 127 141 141 137 127 100 99 110 109 109 96 67 49 34 22 13 4 360 354 350 345 338 335 330 321 305 298 294 288 279 273 266 263 261 256 245 243 245 242 239 239 235 229 231 231
130 121 105 115 122 125 129 132 125 122 122 122 121 118 91 59 40 29 13 3 358 354 348 346 340 336 333 329 316 308 304 300 294 287 279 269 265 264 257 254 248 246 246 240 237 239 235 233 235
121 124 125 130 133 142 146 138 149 145 150 146 146 133 97 56 23 8 3 356 353 349 345 344 338 335 330 323 316 313 307 299 293 287 281 275 265 260 257 254 253 248 245 247 241 237 235 232 232
135 134 143 162 162 159 176 185 180 154 168 169 170 150 105 35 6 359 358 351 349 344 342 343 336 336 332 326 320 311 304 301 296 291 286 280 273 266 258 253 252 248 238 239 244 243 237 233 228
164 187 207 179 184 178 228 254 154 168 185 192 193 182 214 345 348 359 354 348 347 343 342 341 338 335 334 329 319 313 308 305 297 293 288 284 278 270 265 257 251 245 237 234 233 238 233 227 227
205 244 253 187 197 201 234 268 156 181 201 210 211 222 255 303 341 356 351 347 345 342 340 341 341 337 334 330 320 315 310 304 299 296 293 290 285 277 269 261 259 250 240 234 234 227 223 226 224
253 266 270 245 191 220 240 254 195 196 215 225 227 240 262 303 338 349 347 346 342 342 342 343 340 339 337 333 327 324 317 313 307 302 297 297 290 283 276 264 256 252 242 236 233 228 220 224 219
284 275 283 311 172 234 252 261 239 211 219 229 235 247 271 303 326 342 343 344 342 346 346 346 344 344 342 339 333 330 327 322 317 311 308 299 291 286 277 272 262 249 244 239 233 232 223 219 210
245 267 275 177 181 254 273 271 252 225 229 238 248 257 274 299 315 338 339 344 346 347 347 347 347 345 344 340 329 320 319 315 318 316 314 310 300 292 282 271 266 253 247 241 233 226 221 218 205
240 280 291 272 198 221 282 269 226 217 226 235 244 256 276 296 316 335 341 344 345 349 347 345 345 342 344 340 334 331 329 320 327 327 323 319 311 300 289 277 268 261 255 246 236 227 222 217 211
243 45 247 236 257 281 285 303 194 204 230 236 240 244 262 285 309 329 337 342 345 347 345 343 344 343 344 340 340 340 334 330 328 324 320 319 315 307 295 282 271 261 255 252 244 235 232 223 216
82 105 208 251 268 276 246 279 282 159 263 249 238 239 251 275 308 324 334 339 342 345 345 342 341 343 345 343 342 334 336 331 328 327 327 326 324 316 304 290 273 262 255 252 248 244 237 231 225
139 161 168 217 250 261 279 277 299 48 340 352 229 228 238 264 302 318 329 332 340 344 342 342 342 346 345 342 343 343 339 336 334 335 332 328 325 321 321 307 286 270 261 254 249 246 239 234 229
211 260 260 235 233 271 101 269 288 23 306 274 274 254 241 263 298 319 328 331 338 339 341 341 344 345 347 346 347 348 343 336 334 334 332 328 325 324 324 316 302 287 273 262 254 249 243 234 229
217 284 299 305 310 313 212 261 333 53 267 247 247 246 243 258 292 311 321 324 328 333 338 342 342 343 345 345 347 346 344 338 335 334 330 326 320 316 314 311 304 294 282 268 255 248 242 234 230
200 231 331 290 289 280 244 266 266 175 230 232 237 238 246 258 277 296 313 320 325 329 335 338 337 341 345 344 344 346 346 343 339 336 333 330 326 320 321 315 307 296 285 271 259 249 243 237 230
354 149 218 262 291 290 279 265 298 254 292 251 245 246 247 247 261 281 302 315 322 326 328 334 337 338 341 342 344 344 344 345 343 340 343 340 335 332 327 323 319 309 296 275 262 257 243 237 231
173 192 228 253 283 295 311 51 75 309 313 299 280 256 242 240 251 273 294 310 316 316 320 330 337 340 342 342 344 345 350 350 350 352 349 344 341 340 335 330 327 324 314 288 264 257 245 239 234
247 238 228 263 253 263 286 296 118 262 284 281 278 258 233 233 241 259 281 295 304 313 320 330 339 341 341 339 341 346 348 351 355 357 353 350 349 346 343 339 336 334 327 308 278 264 249 233 234
Height
1543 1543 1544 1545 1543 1538 1542 1543 1539 1540 1541 1543 1542 1542 1543 1544 1547 1554 1554 1551 1552 1553 1553 1553 1554 1554 1555 1556 1556 1557 1557 1557 1557 1557 1558 1558 1558 1558 1558 1558 1558 1558 1557 1557 1557 1557 1556 1556 1556
1543 1543 1545 1544 1538 1544 1548 1543 1542 1543 1545 1544 1544 1544 1545 1548 1551 1553 1553 1552 1553 1554 1555 1555 1554 1555 1555 1556 1556 1557 1557 1557 1557 1557 1557 1557 1557 1557 1557 1557 1557 1557 1557 1557 1557 1556 1556 1556 1556
1544 1544 1546 1540 1539 1544 1548 1545 1544 1546 1547 1546 1546 1547 1549 1553 1554 1555 1554 1554 1555 1555 1555 1555 1555 1555 1555 1556 1556 1556 1557 1557 1557 1557 1557 1557 1557 1557 1557 1557 1557 1557 1556 1556 1556 1556 1556 1556 1555
1545 1546 1545 1540 1545 1545 1546 1546 1546 1546 1548 1548 1547 1550 1554 1557 1556 1556 1555 1555 1556 1556 1556 1555 1555 1555 1555 1555 1555 1555 1556 1556 1556 1556 1556 1556 1556 1556 1556 1556 1556 1556 1556 1555 1555 1555 1555 1555 1555
1545 1545 1540 1543 1545 1546 1548 1549 1548 1547 1548 1550 1549 1552 1557 1558 1557 1557 1556 1556 1556 1556 1556 1556 1555 1554 1555 1555 1555 1554 1554 1554 1554 1554 1555 1554 1554 1554 1554 1554 1554 1554 1554 1554 1554 1554 1554 1554 1554
1546 1542 1542 1547 1547 1547 1549 1551 1550 1549 1551 1552 1553 1554 1559 1560 1558 1558 1557 1557 1556 1556 1555 1555 1554 1554 1553 1553 1553 1553 1553 1553 1553 1552 1553 1553 1553 1553 1553 1553 1553 1553 1553 1553 1553 1553 1553 1553 1553
1545 1540 1542 1543 1547 1548 1550 1552 1552 1552 1553 1555 1555 1556 1560 1560 1559 1558 1558 1557 1556 1555 1555 1554 1553 1553 1552 1552 1551 1551 1551 1551 1550 1550 1550 1551 1550 1550 1551 1551 1551 1551 1551 1551 1551 1552 1552 1552 1552
1545 1541 1543 1543 1546 1549 1552 1553 1555 1555 1556 1558 1557 1557 1561 1562 1560 1559 1558 1557 1556 1555 1554 1553 1552 1551 1551 1550 1549 1549 1548 1548 1548 1548 1548 1548 1548 1548 1548 1548 1548 1549 1549 1549 1549 1550 1550 1550 1550
1545 1542 1544 1544 1546 1548 1552 1554 1556 1558 1558 1559 1560 1561 1562 1562 1561 1560 1559 1558 1557 1555 1554 1553 1551 1550 1549 1548 1547 1546 1545 1545 1545 1545 1545 1545 1545 1546 1546 1546 1546 1546 1546 1547 1548 1548 1548 1548 1549
1544 1542 1544 1546 1546 1548 1553 1554 1556 1557 1558 1560 1562 1562 1562 1562 1562 1561 1560 1559 1557 1556 1554 1552 1551 1549 1547 1546 1544 1543 1543 1542 1541 1541 1541 1542 1542 1542 1543 1543 1543 1543 1543 1544 1545 1545 1546 1546 1548
1543 1543 1546 1549 1550 1551 1553 1555 1557 1557 1558 1561 1562 1563 1563 1563 1563 1562 1561 1559 1557 1555 1553 1551 1550 1548 1546 1544 1542 1541 1539 1538 1538 1538 1538 1538 1538 1539 1539 1540 1540 1540 1541 1542 1542 1543 1544 1545 1547
1545 1548 1549 1551 1552 1553 1554 1556 1557 1558 1561 1562 1563 1563 1564 1563 1563 1562 1561 1559 1557 1555 1553 1551 1548 1547 1545 1542 1540 1538 1537 1536 1535 1535 1535 1534 1534 1535 1535 1536 1536 1537 1537 1538 1540 1541 1542 1543 1544
1545 1549 1551 1553 1554 1555 1556 1557 1558 1560 1562 1563 1563 1564 1564 1564 1563 1562 1560 1559 1557 1554 1552 1549 1546 1545 1542 1540 1537 1536 1535 1533 1532 1530 1530 1530 1530 1530 1531 1531 1532 1533 1534 1535 1536 1537 1539 1540 1541
1547 1550 1552 1554 1554 1555 1556 1557 1558 1561 1562 1563 1564 1564 1564 1563 1563 1562 1560 1558 1556 1553 1551 1548 1545 1542 1540 1538 1536 1534 1532 1530 1528 1527 1527 1527 1526 1526 1526 1527 1528 1529 1530 1531 1532 1533 1535 1536 1538
1549 1550 1552 1554 1554 1555 1556 1556 1557 1560 1561 1562 1563 1563 1563 1563 1562 1561 1559 1557 1555 1552 1549 1546 1543 1540 1537 1535 1532 1530 1528 1527 1525 1524 1523 1523 1522 1522 1522 1522 1523 1525 1526 1527 1528 1529 1531 1532 1534
1547 1547 1549 1551 1553 1555 1557 1551 1556 1559 1560 1561 1562 1562 1563 1562 1561 1560 1558 1556 1554 1551 1548 1544 1541 1538 1535 1532 1529 1527 1525 1523 1522 1520 1519 1519 1518 1518 1518 1518 1519 1520 1521 1522 1523 1524 1526 1528 1530
1545 1545 1545 1548 1551 1552 1553 1550 1555 1558 1559 1560 1561 1561 1561 1561 1560 1559 1557 1555 1552 1549 1546 1543 1540 1536 1533 1530 1527 1525 1522 1520 1518 1517 1516 1515 1514 1514 1515 1514 1515 1516 1516 1517 1519 1520 1522 1524 1526
1542 1540 1542 1544 1548 1550 1550 1548 1553 1556 1557 1558 1559 1559 1559 1559 1559 1558 1556 1553 1551 1548 1545 1542 1538 1535 1532 1528 1525 1522 1520 1518 1516 1514 1512 1511 1510 1510 1510 1510 1510 1511 1512 1513 1514 1516 1518 1520 1522
1537 1539 1541 1544 1549 1549 1547 1546 1549 1553 1555 1556 1556 1557 1557 1558 1558 1556 1555 1552 1550 1547 1544 1541 1537 1534 1530 1527 1523 1520 1518 1515 1513 1511 1509 1507 1506 1506 1506 1506 1507 1507 1508 1509 1510 1512 1513 1515 1518
1538 1540 1542 1547 1550 1548 1546 1545 1545 1550 1552 1553 1554 1555 1555 1556 1556 1555 1553 1551 1548 1546 1542 1539 1536 1533 1529 1526 1522 1519 1516 1513 1510 1508 1506 1505 1503 1502 1502 1502 1503 1503 1504 1504 1506 1507 1509 1511 1513
1539 1541 1542 1546 1549 1549 1548 1542 1542 1546 1550 1552 1553 1554 1554 1555 1554 1553 1552 1550 1547 1544 1541 1538 1535 1532 1529 1525 1521 1518 1515 1512 1509 1507 1504 1502 1500 1499 1499 1499 1499 1499 1500 1501 1501 1503 1505 1507 1509
1541 1543 1545 1547 1547 1543 1548 1546 1537 1541 1546 1548 1550 1551 1552 1553 1553 1552 1551 1549 1546 1544 1540 1538 1534 1531 1528 1524 1521 1517 1514 1511 1508 1505 1502 1500 1498 1496 1496 1495 1495 1496 1496 1497 1498 1499 1501 1502 1504
1543 1546 1545 1546 1545 1545 1545 1546 1536 1541 1541 1543 1546 1549 1551 1552 1551 1551 1549 1547 1545 1542 1539 1537 1534 1531 1527 1524 1520 1516 1513 1510 1506 1503 1500 1498 1496 1494 1493 1492 1492 1492 1493 1493 1494 1495 1497 1498 1500
1546 1546 1546 1545 1543 1548 1545 1547 1541 1536 1539 1542 1545 1547 1549 1550 1550 1549 1548 1546 1544 1542 1539 1536 1532 1529 1526 1523 1520 1516 1512 1509 1506 1502 1499 1496 1494 1492 1491 1490 1489 1489 1490 1490 1491 1492 1493 1494 1496
1543 1543 1547 1547 1548 1546 1546 1548 1541 1537 1541 1543 1544 1546 1547 1548 1548 1548 1546 1545 1543 1540 1538 1535 1532 1529 1526 1522 1519 1516 1512 1508 1505 1502 1498 1495 1493 1491 1490 1488 1487 1487 1487 1487 1488 1488 1490 1491 1492
1542 1541 1549 1553 1549 1543 1546 1545 1536 1539 1542 1543 1544 1545 1546 1546 1547 1546 1545 1543 1542 1539 1537 1534 1531 1528 1525 1522 1519 1515 1511 1508 1504 1501 1498 1495 1492 1490 1488 1487 1485 1484 1484 1484 1484 1485 1486 1487 1489
1542 1542 1543 1544 1546 1548 1539 1538 1534 1538 1540 1541 1543 1544 1544 1545 1545 1544 1543 1542 1540 1538 1536 1533 1530 1527 1524 1521 1518 1515 1511 1507 1504 1501 1497 1494 1492 1489 1487 1485 1484 1482 1482 1482 1482 1482 1483 1484 1485
1542 1543 1545 1546 1551 1547 1542 1539 1536 1534 1535 1537 1539 1541 1542 1543 1543 1543 1542 1541 1539 1537 1535 1532 1529 1527 1524 1521 1518 1514 1510 1507 1503 1500 1497 1493 1491 1488 1486 1484 1482 1481 1480 1479 1479 1479 1480 1481 1482
1546 1546 1545 1545 1547 1549 1547 1540 1531 1533 1535 1536 1537 1538 1540 1541 1541 1541 1541 1539 1538 1536 1534 1532 1529 1526 1523 1521 1517 1514 1511 1507 1503 1500 1496 1493 1490 1487 1485 1483 1481 1480 1479 1478 1477 1477 1478 1478 1480
1541 1541 1543 1546 1546 1548 1547 1541 1532 1534 1535 1536 1536 1536 1538 1539 1539 1539 1539 1538 1537 1535 1533 1531 1529 1526 1523 1520 1517 1514 1511 1507 1504 1500 1497 1493 1490 1487 1485 1483 1481 1479 1477 1476 1476 1475 1476 1476 1477